Location: Centerville
(32.8776°N, 96.6203°W)
Time: 02:22:01
(UTC+00:00)

Cosmos 883 Rocket - Pass Details

Date: 17 June 2021
Orbit: 950 x 996 km, 83.0° (Epoch: 27 July)

Event Time Altitude Azimuth Distance (km) Brightness Sun altitude
Rises 10:20:25 0° 350° (N) 3,636 7.9 -11.0°
Reaches altitude 10° 10:22:56 10° 347° (NNW) 2,683 7.1 -10.5°
Maximum altitude 10:28:59 65° 267° (W) 1,041 4.5 -9.5°
Drops below altitude 10° 10:34:59 10° 187° (S) 2,664 6.4 -8.5°
Sets 10:37:29 0° 184° (S) 3,608 7.1 -8.1°
